| time (UTC) | temp F | wind direction | speed MPH | gust MPH | rain 1hr in | rain 24hr in | rain mn in | humidity % | barometer mb |
| 20260504141014 | 55 | 282 | 3.0 | 3.0 | 0.00 | 0.00 | 0.00 | 44 | 1014.4 |
| 20260504140511 | 55 | 265 | 7.0 | 9.0 | 0.00 | 0.00 | 0.00 | 44 | 1014.3 |
| 20260504130435 | 55 | 141 | 1.0 | 1.0 | 0.00 | 0.00 | 0.00 | 45 | 1014.3 |
| 20260504110322 | 46 | 153 | 1.0 | 1.0 | 0.00 | 0.00 | 0.00 | 56 | 1014.4 |
| 20260504100240 | 43 | 132 | 1.0 | 1.0 | 0.00 | 0.00 | 0.00 | 62 | 1014.4 |
| 20260504081633 | 43 | 133 | 1.0 | 2.0 | 0.00 | 0.00 | 0.00 | 60 | 1014.4 |
| 20260504081129 | 44 | 288 | 1.0 | 2.0 | 0.00 | 0.00 | 0.00 | 60 | 1014.4 |
| 20260504080626 | 44 | 174 | 1.0 | 1.0 | 0.00 | 0.00 | 0.00 | 60 | 1014.5 |
| 20260504080122 | 44 | 140 | 1.0 | 1.0 | 0.00 | 0.00 | 0.00 | 60 | 1014.6 |
| 20260504050439 | 44 | 318 | 1.0 | 2.0 | 0.00 | 0.00 | 0.00 | 58 | 1014.2 |
| 20260504045936 | 44 | 158 | 1.0 | 1.0 | 0.00 | 0.00 | 0.00 | 59 | 1014.0 |
| 20260504045432 | 44 | 49 | 1.0 | 2.0 | 0.00 | 0.00 | 0.00 | 59 | 1014.4 |
| 20260504044928 | 44 | 152 | 1.0 | 1.0 | 0.00 | 0.00 | 0.00 | 59 | 1014.3 |
| 20260504044426 | 44 | 0 | 3.0 | 3.0 | 0.00 | 0.00 | 0.00 | 59 | 1014.0 |
| 20260504043923 | 44 | 325 | 1.0 | 2.0 | 0.00 | 0.00 | 0.00 | 59 | 1014.3 |
| 20260504043420 | 44 | 327 | 2.0 | 2.0 | 0.00 | 0.00 | 0.00 | 59 | 1014.3 |
| 20260504042917 | 44 | 314 | 2.0 | 2.0 | 0.00 | 0.00 | 0.00 | 59 | 1014.0 |
| 20260504042414 | 44 | 128 | 1.0 | 1.0 | 0.00 | 0.00 | 0.00 | 59 | 1014.2 |
| 20260504041910 | 44 | 135 | 1.0 | 1.0 | 0.00 | 0.00 | 0.00 | 59 | 1014.0 |
| 20260504041406 | 44 | 139 | 1.0 | 1.0 | 0.00 | 0.00 | 0.00 | 58 | 1013.9 |
| 20260504040902 | 44 | 140 | 0.0 | 0.0 | 0.00 | 0.00 | 0.00 | 58 | 1013.8 |
| 20260504040400 | 44 | 133 | 0.0 | 1.0 | 0.00 | 0.00 | 0.00 | 58 | 1013.7 |
| 20260504035856 | 45 | 126 | 0.0 | 1.0 | 0.00 | 0.00 | 0.00 | 57 | 1013.8 |
| 20260504035354 | 45 | 134 | 1.0 | 1.0 | 0.00 | 0.00 | 0.00 | 56 | 1013.8 |
| 20260504034850 | 45 | 58 | 1.0 | 2.0 | 0.00 | 0.00 | 0.00 | 56 | 1013.9 |
| 20260504034348 | 45 | 113 | 0.0 | 1.0 | 0.00 | 0.00 | 0.00 | 56 | 1013.8 |
| 20260504033844 | 45 | 141 | 1.0 | 1.0 | 0.00 | 0.00 | 0.00 | 57 | 1013.7 |
| 20260504033343 | 45 | 122 | 1.0 | 1.0 | 0.00 | 0.00 | 0.00 | 56 | 1013.6 |
| 20260504032839 | 45 | 68 | 1.0 | 1.0 | 0.00 | 0.00 | 0.00 | 56 | 1013.6 |
| 20260504032336 | 45 | 41 | 2.0 | 2.0 | 0.00 | 0.00 | 0.00 | 56 | 1013.8 |
| 20260504031833 | 45 | 126 | 2.0 | 2.0 | 0.00 | 0.00 | 0.00 | 55 | 1013.6 |
| 20260504031330 | 45 | 331 | 3.0 | 3.0 | 0.00 | 0.00 | 0.00 | 56 | 1013.6 |
| 20260504030826 | 45 | 80 | 1.0 | 2.0 | 0.00 | 0.00 | 0.00 | 56 | 1013.9 |
| 20260504030324 | 45 | 179 | 2.0 | 2.0 | 0.00 | 0.00 | 0.00 | 55 | 1013.8 |
| 20260504025820 | 45 | 306 | 2.0 | 3.0 | 0.00 | 0.00 | 0.00 | 55 | 1013.9 |
| 20260504025317 | 45 | 162 | 1.0 | 1.0 | 0.00 | 0.00 | 0.00 | 55 | 1013.7 |
| 20260504024813 | 46 | 85 | 1.0 | 1.0 | 0.00 | 0.00 | 0.00 | 55 | 1013.6 |
| 20260504024310 | 46 | 144 | 1.0 | 1.0 | 0.00 | 0.00 | 0.00 | 54 | 1013.7 |
| 20260504023807 | 45 | 142 | 1.0 | 1.0 | 0.00 | 0.00 | 0.00 | 54 | 1013.8 |
| 20260504023303 | 45 | 153 | 1.0 | 1.0 | 0.00 | 0.00 | 0.00 | 55 | 1013.7 |
| 20260504022759 | 45 | 161 | 1.0 | 1.0 | 0.00 | 0.00 | 0.00 | 54 | 1014.0 |
| 20260504022256 | 46 | 136 | 1.0 | 2.0 | 0.00 | 0.00 | 0.00 | 53 | 1013.8 |
| 20260504021752 | 46 | 126 | 1.0 | 1.0 | 0.00 | 0.00 | 0.00 | 54 | 1014.0 |
| 20260504021250 | 46 | 116 | 1.0 | 1.0 | 0.00 | 0.00 | 0.00 | 53 | 1013.8 |
| 20260504020747 | 46 | 141 | 1.0 | 1.0 | 0.00 | 0.00 | 0.00 | 53 | 1013.9 |
| 20260504020243 | 46 | 128 | 0.0 | 1.0 | 0.00 | 0.00 | 0.00 | 53 | 1013.7 |
| 20260504015739 | 46 | 114 | 1.0 | 1.0 | 0.00 | 0.00 | 0.00 | 53 | 1013.9 |
| 20260504015236 | 46 | 127 | 0.0 | 1.0 | 0.00 | 0.00 | 0.00 | 53 | 1013.7 |
| 20260504014732 | 46 | 115 | 0.0 | 1.0 | 0.00 | 0.00 | 0.00 | 53 | 1013.5 |
| 20260504014228 | 46 | 103 | 1.0 | 1.0 | 0.00 | 0.00 | 0.00 | 53 | 1013.6 |
| 20260504013726 | 46 | 130 | 0.0 | 1.0 | 0.00 | 0.00 | 0.00 | 52 | 1013.5 |
| 20260504013224 | 47 | 128 | 0.0 | 0.0 | 0.00 | 0.00 | 0.00 | 52 | 1013.6 |
| 20260504012720 | 47 | 34 | 1.0 | 1.0 | 0.00 | 0.00 | 0.00 | 50 | 1013.5 |
| 20260504012218 | 47 | 303 | 1.0 | 1.0 | 0.00 | 0.00 | 0.00 | 50 | 1013.5 |
| 20260504011715 | 48 | 121 | 1.0 | 1.0 | 0.00 | 0.00 | 0.00 | 50 | 1013.5 |
| 20260504011211 | 48 | 126 | 0.0 | 1.0 | 0.00 | 0.00 | 0.00 | 49 | 1013.5 |
| 20260504010708 | 48 | 311 | 2.0 | 2.0 | 0.00 | 0.00 | 0.00 | 49 | 1013.6 |
| 20260504010203 | 48 | 103 | 1.0 | 1.0 | 0.00 | 0.00 | 0.00 | 49 | 1013.4 |
| 20260504005700 | 48 | 328 | 2.0 | 2.0 | 0.00 | 0.00 | 0.00 | 49 | 1013.3 |
| 20260504005157 | 48 | 101 | 1.0 | 1.0 | 0.00 | 0.00 | 0.00 | 48 | 1013.3 |
| 20260504004655 | 48 | 138 | 1.0 | 1.0 | 0.00 | 0.00 | 0.00 | 49 | 1013.4 |
| 20260504004152 | 48 | 128 | 0.0 | 0.0 | 0.00 | 0.00 | 0.00 | 49 | 1013.2 |
| 20260504003648 | 48 | 127 | 0.0 | 1.0 | 0.00 | 0.00 | 0.00 | 48 | 1013.3 |
| 20260504003145 | 48 | 100 | 0.0 | 1.0 | 0.00 | 0.00 | 0.00 | 49 | 1013.2 |
| 20260504002642 | 48 | 102 | 1.0 | 1.0 | 0.00 | 0.00 | 0.00 | 48 | 1013.4 |
| 20260504002139 | 49 | 162 | 1.0 | 1.0 | 0.00 | 0.00 | 0.00 | 48 | 1013.1 |
| 20260504001637 | 49 | 116 | 0.0 | 0.0 | 0.00 | 0.00 | 0.00 | 47 | 1013.0 |
| 20260504001132 | 49 | 57 | 1.0 | 2.0 | 0.00 | 0.00 | 0.00 | 47 | 1013.0 |
| 20260504000630 | 49 | 104 | 0.0 | 0.0 | 0.00 | 0.00 | 0.00 | 47 | 1013.2 |
| 20260504000127 | 50 | 116 | 0.0 | 0.0 | 0.00 | 0.00 | 0.00 | 47 | 1013.0 |
| 20260503235626 | 50 | 87 | 1.0 | 1.0 | 0.00 | 0.00 | 0.00 | 46 | 1013.0 |
| 20260503235122 | 50 | 100 | 0.0 | 0.0 | 0.00 | 0.00 | 0.00 | 47 | 1012.8 |
| 20260503234620 | 50 | 129 | 1.0 | 1.0 | 0.00 | 0.00 | 0.00 | 45 | 1012.7 |
| 20260503234118 | 50 | 21 | 2.0 | 2.0 | 0.00 | 0.00 | 0.00 | 45 | 1012.7 |
| 20260503233615 | 51 | 108 | 0.0 | 0.0 | 0.00 | 0.00 | 0.00 | 45 | 1012.8 |
| 20260503233110 | 51 | 96 | 1.0 | 1.0 | 0.00 | 0.00 | 0.00 | 44 | 1012.5 |
| 20260503232607 | 51 | 158 | 1.0 | 1.0 | 0.00 | 0.00 | 0.00 | 44 | 1012.7 |
| 20260503232105 | 51 | 145 | 0.0 | 1.0 | 0.00 | 0.00 | 0.00 | 43 | 1012.6 |
| 20260503231603 | 51 | 347 | 2.0 | 2.0 | 0.00 | 0.00 | 0.00 | 43 | 1012.6 |
| 20260503231059 | 51 | 107 | 0.0 | 0.0 | 0.00 | 0.00 | 0.00 | 46 | 1012.5 |
| 20260503230555 | 51 | 98 | 0.0 | 0.0 | 0.00 | 0.00 | 0.00 | 44 | 1012.5 |
| 20260503230053 | 51 | 119 | 0.0 | 0.0 | 0.00 | 0.00 | 0.00 | 43 | 1012.6 |
| 20260503225550 | 51 | 97 | 0.0 | 1.0 | 0.00 | 0.00 | 0.00 | 43 | 1012.5 |
| 20260503225045 | 52 | 90 | 1.0 | 1.0 | 0.00 | 0.00 | 0.00 | 42 | 1012.4 |
| 20260503224543 | 52 | 295 | 2.0 | 2.0 | 0.00 | 0.00 | 0.00 | 42 | 1012.5 |
| 20260503224040 | 52 | 68 | 3.0 | 5.0 | 0.00 | 0.00 | 0.00 | 41 | 1012.5 |
| 20260503223538 | 52 | 46 | 1.0 | 1.0 | 0.00 | 0.00 | 0.00 | 41 | 1012.3 |
| 20260503223033 | 52 | 105 | 0.0 | 0.0 | 0.00 | 0.00 | 0.00 | 42 | 1012.6 |
| 20260503222532 | 52 | 58 | 2.0 | 2.0 | 0.00 | 0.00 | 0.00 | 40 | 1012.5 |
| 20260503222030 | 52 | 62 | 1.0 | 1.0 | 0.00 | 0.00 | 0.00 | 41 | 1012.5 |
| 20260503221528 | 52 | 48 | 2.0 | 2.0 | 0.00 | 0.00 | 0.00 | 41 | 1012.5 |
| 20260503221025 | 52 | 115 | 0.0 | 1.0 | 0.00 | 0.00 | 0.00 | 40 | 1012.4 |
| 20260503220521 | 52 | 298 | 2.0 | 2.0 | 0.00 | 0.00 | 0.00 | 40 | 1012.5 |
| 20260503220017 | 53 | 128 | 1.0 | 1.0 | 0.00 | 0.00 | 0.00 | 41 | 1012.5 |
| 20260503215515 | 53 | 61 | 1.0 | 2.0 | 0.00 | 0.00 | 0.00 | 40 | 1012.4 |
| 20260503215012 | 53 | 225 | 2.0 | 2.0 | 0.00 | 0.00 | 0.00 | 41 | 1012.0 |
| 20260503214510 | 52 | 86 | 1.0 | 2.0 | 0.00 | 0.00 | 0.00 | 40 | 1012.3 |
| 20260503214006 | 53 | 68 | 2.0 | 3.0 | 0.00 | 0.00 | 0.00 | 39 | 1012.0 |
| 20260503213505 | 53 | 3 | 2.0 | 3.0 | 0.00 | 0.00 | 0.00 | 39 | 1012.3 |
| 20260503213001 | 53 | 92 | 1.0 | 1.0 | 0.00 | 0.00 | 0.00 | 39 | 1011.9 |
| 20260503212459 | 54 | 113 | 2.0 | 2.0 | 0.00 | 0.00 | 0.00 | 38 | 1012.0 |
| 20260503211956 | 53 | 161 | 2.0 | 3.0 | 0.00 | 0.00 | 0.00 | 39 | 1012.0 |
| 20260503211453 | 53 | 43 | 2.0 | 2.0 | 0.00 | 0.00 | 0.00 | 38 | 1012.0 |
| 20260503210948 | 54 | 2 | 2.0 | 2.0 | 0.00 | 0.00 | 0.00 | 37 | 1011.9 |
| 20260503210445 | 54 | 59 | 2.0 | 2.0 | 0.00 | 0.00 | 0.00 | 37 | 1011.6 |
| 20260503205940 | 55 | 63 | 3.0 | 3.0 | 0.00 | 0.00 | 0.00 | 36 | 1011.9 |
| 20260503205437 | 54 | 48 | 2.0 | 5.0 | 0.00 | 0.00 | 0.00 | 38 | 1011.8 |
| 20260503204933 | 55 | 54 | 2.0 | 2.0 | 0.00 | 0.00 | 0.00 | 36 | 1011.7 |
| 20260503204431 | 55 | 21 | 2.0 | 2.0 | 0.00 | 0.00 | 0.00 | 35 | 1011.7 |
| 20260503203927 | 55 | 180 | 5.0 | 6.0 | 0.00 | 0.00 | 0.00 | 34 | 1012.0 |
| 20260503203425 | 54 | 349 | 3.0 | 3.0 | 0.00 | 0.00 | 0.00 | 34 | 1011.8 |
| 20260503202921 | 54 | 86 | 2.0 | 2.0 | 0.00 | 0.00 | 0.00 | 35 | 1011.7 |
| 20260503202420 | 53 | 356 | 3.0 | 5.0 | 0.00 | 0.00 | 0.00 | 37 | 1011.7 |
| 20260503201918 | 53 | 42 | 1.0 | 1.0 | 0.00 | 0.00 | 0.00 | 35 | 1011.7 |
| 20260503201415 | 53 | 337 | 2.0 | 3.0 | 0.00 | 0.00 | 0.00 | 37 | 1012.0 |
| 20260503200912 | 52 | 300 | 3.0 | 5.0 | 0.00 | 0.00 | 0.00 | 37 | 1012.1 |
| 20260503200408 | 51 | 72 | 1.0 | 2.0 | 0.00 | 0.00 | 0.00 | 39 | 1012.0 |
| 20260503195905 | 52 | 65 | 2.0 | 2.0 | 0.00 | 0.00 | 0.00 | 38 | 1012.3 |
| 20260503195402 | 53 | 116 | 2.0 | 3.0 | 0.00 | 0.00 | 0.00 | 39 | 1012.4 |
| 20260503194859 | 53 | 60 | 1.0 | 1.0 | 0.00 | 0.00 | 0.00 | 38 | 1012.1 |
| 20260503194355 | 52 | 56 | 1.0 | 1.0 | 0.00 | 0.00 | 0.00 | 39 | 1012.3 |
| 20260503193851 | 53 | 37 | 1.0 | 2.0 | 0.00 | 0.00 | 0.00 | 36 | 1012.5 |
| 20260503193347 | 51 | 89 | 3.0 | 6.0 | 0.00 | 0.00 | 0.00 | 38 | 1012.5 |
| 20260503192843 | 53 | 72 | 2.0 | 3.0 | 0.00 | 0.00 | 0.00 | 38 | 1012.5 |
| 20260503192339 | 51 | 14 | 2.0 | 3.0 | 0.00 | 0.00 | 0.00 | 38 | 1012.5 |
| 20260503191835 | 51 | 307 | 3.0 | 5.0 | 0.00 | 0.00 | 0.00 | 39 | 1012.6 |
| 20260503191332 | 52 | 54 | 3.0 | 3.0 | 0.00 | 0.00 | 0.00 | 37 | 1012.7 |
| 20260503190829 | 52 | 324 | 3.0 | 3.0 | 0.00 | 0.00 | 0.00 | 38 | 1012.7 |
| 20260503190326 | 52 | 124 | 2.0 | 2.0 | 0.00 | 0.00 | 0.00 | 39 | 1012.5 |
| 20260503185823 | 51 | 115 | 0.0 | 1.0 | 0.00 | 0.00 | 0.00 | 40 | 1012.6 |
| 20260503185319 | 51 | 70 | 3.0 | 3.0 | 0.00 | 0.00 | 0.00 | 40 | 1012.9 |
| 20260503184814 | 53 | 13 | 3.0 | 3.0 | 0.00 | 0.00 | 0.00 | 38 | 1012.9 |
| 20260503184310 | 52 | 70 | 2.0 | 3.0 | 0.00 | 0.00 | 0.00 | 39 | 1012.6 |
| 20260503183806 | 51 | 318 | 3.0 | 5.0 | 0.00 | 0.00 | 0.00 | 38 | 1013.0 |
| 20260503183304 | 52 | 111 | 3.0 | 5.0 | 0.00 | 0.00 | 0.00 | 39 | 1012.9 |
| 20260503182801 | 51 | 52 | 3.0 | 3.0 | 0.00 | 0.00 | 0.00 | 40 | 1013.1 |
| 20260503182300 | 51 | 95 | 1.0 | 1.0 | 0.00 | 0.00 | 0.00 | 40 | 1012.9 |
| 20260503181756 | 52 | 321 | 3.0 | 6.0 | 0.00 | 0.00 | 0.00 | 40 | 1013.0 |
| 20260503181253 | 51 | 20 | 3.0 | 5.0 | 0.00 | 0.00 | 0.00 | 41 | 1013.0 |
| 20260503180750 | 50 | 45 | 3.0 | 3.0 | 0.00 | 0.00 | 0.00 | 39 | 1013.2 |
| 20260503180248 | 50 | 313 | 4.0 | 5.0 | 0.00 | 0.00 | 0.00 | 39 | 1013.0 |
| 20260503175744 | 51 | 53 | 3.0 | 6.0 | 0.00 | 0.00 | 0.00 | 39 | 1013.0 |
| 20260503175242 | 50 | 305 | 2.0 | 3.0 | 0.00 | 0.00 | 0.00 | 41 | 1012.8 |
| 20260503174738 | 50 | 34 | 1.0 | 3.0 | 0.00 | 0.00 | 0.00 | 42 | 1013.0 |
| 20260503174236 | 50 | 355 | 2.0 | 2.0 | 0.00 | 0.00 | 0.00 | 39 | 1013.1 |
| 20260503173736 | 51 | 24 | 3.0 | 5.0 | 0.00 | 0.00 | 0.00 | 39 | 1013.0 |
| 20260503173232 | 49 | 306 | 3.0 | 7.0 | 0.00 | 0.00 | 0.00 | 43 | 1013.0 |
| 20260503172730 | 50 | 273 | 5.0 | 6.0 | 0.00 | 0.00 | 0.00 | 40 | 1013.3 |
| 20260503172227 | 49 | 10 | 3.0 | 5.0 | 0.00 | 0.00 | 0.00 | 42 | 1013.1 |
| 20260503171723 | 50 | 275 | 4.0 | 5.0 | 0.00 | 0.00 | 0.00 | 41 | 1013.2 |
| 20260503171220 | 49 | 47 | 5.0 | 7.0 | 0.00 | 0.00 | 0.00 | 41 | 1013.2 |
| 20260503170717 | 47 | 315 | 3.0 | 5.0 | 0.00 | 0.00 | 0.00 | 43 | 1013.4 |
| 20260503170214 | 49 | 143 | 2.0 | 3.0 | 0.00 | 0.00 | 0.00 | 40 | 1013.4 |
| 20260503160136 | 47 | 330 | 2.0 | 3.0 | 0.00 | 0.00 | 0.00 | 43 | 1013.9 |
| 20260503150606 | 43 | 151 | 2.0 | 2.0 | 0.00 | 0.00 | 0.00 | 55 | 1013.9 |